Weather History for KCEU - December, 2013

Change the Weather History Date:

Friday, December 13, 2013

  Actual Average Record
Temperature  
Mean Temperature 40 °F -  
Max Temperature 52 °F 55 °F 73 °F (2007)
Min Temperature 28 °F 32 °F 2 °F (1962)
Degree Days  
Heating Degree Days 25    
Moisture  
Dew Point 25 °F    
Average Humidity 61    
Maximum Humidity 87    
Minimum Humidity 26    
Precipitation  
Precipitation 0.00 in - - ()
Sea Level Pressure  
Sea Level Pressure 30.32 in    
Wind  
Wind Speed 1 mph (NNE)    
Max Wind Speed 6 mph    
Max Gust Speed -    
Visibility 8 miles    
Events Fog    
Averages and records for this station are not official NWS values.
T = Trace of Precipitation, MM = Missing Value Source: NWS Daily Summary

Daily Weather History Graph

Daily Weather History Graph

Search for Another Location

Airport or City:

Trip Planner

Search our weather history database for the weather conditions in past years. The results will help you decide how hot, cold, wet, or windy it might be!

Date:

Astronomy

Dec. 13, 2013 Rise Set
Actual Time 7:30 AM EST 5:21 PM EST
Civil Twilight 7:02 AM EST 5:49 PM EST
Nautical Twilight 6:30 AM EST 6:21 PM EST
Astronomical Twilight 5:59 AM EST 6:51 PM EST
Moon 2:58 PM EST (12/13) 3:57 AM EST (12/13)
Length of Visible Light 10h 47m
Length of Day
9h 51m
Waxing Gibbous, 88% of the Moon is Illuminated
Dec 13
Waxing Gibbous
Dec 17
Full
Dec 25
Last Quarter
Jan 1
New
Jan 7
First Quarter

Hourly Weather History & Observations

Time (EST) Temp. Windchill Dew Point Humidity Pressure Visibility Wind Dir Wind Speed Gust Speed Precip Events Conditions
12:54 AM 36.0 °F - 18.0 °F 48% 30.38 in 10.0 mi Calm Calm - N/A   Clear
1:54 AM 32.0 °F 28.7 °F 19.0 °F 59% 30.38 in 10.0 mi North 3.5 mph - N/A   Clear
2:54 AM 32.0 °F - 21.9 °F 66% 30.35 in 10.0 mi Calm Calm - N/A   Clear
3:54 AM 32.0 °F 27.5 °F 24.1 °F 73% 30.36 in 10.0 mi NNW 4.6 mph - N/A   Clear
4:54 AM 33.1 °F - 25.0 °F 72% 30.34 in 10.0 mi Calm Calm - N/A   Clear
5:54 AM 30.9 °F - 26.1 °F 82% 30.34 in 10.0 mi Calm Calm - N/A   Clear
6:54 AM 30.0 °F - 25.0 °F 82% 30.35 in 10.0 mi Calm Calm - N/A   Clear
7:50 AM 28.4 °F - 24.8 °F 86% 30.34 in 2.5 mi Calm Calm - N/A   Scattered Clouds
7:52 AM 28.4 °F - 24.8 °F 86% 30.34 in 1.0 mi Calm Calm - N/A   Mist
7:54 AM 28.9 °F - 25.0 °F 85% 30.36 in 0.8 mi Calm Calm - N/A   Mist
8:03 AM 28.4 °F - 24.8 °F 86% 30.34 in 0.2 mi Calm Calm - N/A Fog Light Freezing Fog
8:25 AM 30.2 °F - 26.6 °F 86% 30.35 in 1.0 mi Calm Calm - N/A   Mist
8:27 AM 30.2 °F - 26.6 °F 86% 30.35 in 2.0 mi Calm Calm - N/A   Scattered Clouds
8:35 AM 32.0 °F - 28.4 °F 87% 30.35 in 10.0 mi Calm Calm - N/A   Partly Cloudy
8:54 AM 33.1 °F - 28.9 °F 85% 30.36 in 10.0 mi Calm Calm - N/A   Clear
9:54 AM 41.0 °F - 24.1 °F 51% 30.38 in 10.0 mi Calm Calm - N/A   Clear
10:54 AM 45.0 °F 43.5 °F 21.0 °F 39% 30.38 in 10.0 mi NE 3.5 mph - N/A   Clear
11:54 AM 48.0 °F - 19.0 °F 32% 30.34 in 10.0 mi Calm Calm - N/A   Clear
12:54 PM 50.0 °F - 19.9 °F 31% 30.32 in 10.0 mi Variable 4.6 mph - N/A   Clear
1:54 PM 52.0 °F - 18.0 °F 26% 30.28 in 10.0 mi Variable 5.8 mph - N/A   Clear
2:54 PM 51.1 °F - 21.0 °F 31% 30.27 in 10.0 mi Calm Calm - N/A   Clear
3:54 PM 52.0 °F - 21.0 °F 30% 30.26 in 10.0 mi SSE 3.5 mph - N/A   Clear
4:54 PM 48.0 °F - 26.1 °F 42% 30.27 in 10.0 mi Calm Calm - N/A   Clear
5:54 PM 48.9 °F - 25.0 °F 39% 30.26 in 10.0 mi Calm Calm - N/A   Clear
6:54 PM 46.9 °F - 30.9 °F 54% 30.25 in 10.0 mi Calm Calm - N/A   Clear
7:54 PM 46.0 °F - 28.9 °F 51% 30.29 in 10.0 mi Calm Calm - N/A   Clear
8:54 PM 46.0 °F - 28.9 °F 51% 30.28 in 10.0 mi Calm Calm - N/A   Clear
9:54 PM 45.0 °F - 30.9 °F 58% 30.26 in 10.0 mi Calm Calm - N/A   Clear
10:54 PM 44.1 °F 42.5 °F 33.1 °F 65% 30.25 in 10.0 mi North 3.5 mph - N/A   Clear
11:54 PM 45.0 °F 42.6 °F 27.0 °F 49% 30.24 in 10.0 mi NNE 4.6 mph - N/A   Clear